Location: Unspecified
(0.0000°N, 0.0000°E)
Time: 22:33:11
(UTC+00:00)

Vela 2A - Pass Details

Date: 07 December 2021
Orbit: 17927 x 188591 km, 32.3° (Epoch: 11 January)

Event Time Altitude Azimuth Distance (km) Brightness Sun altitude
Rises 09:20:40 0° 67° (ENE) 192,938 ? 46.9°
Reaches altitude 10° 10:06:18 10° 67° (ENE) 191,309 ? 55.8°
Maximum altitude 15:31:37 68° 359° (N) 181,058 ? 32.0°
Drops below altitude 10° 20:54:17 10° 290° (WNW) 176,976 ? -41.3°
Sets 21:39:01 0° 289° (WNW) 176,592 ? -50.5°
